STARLINK-1035

Last updated on Thu Dec 12 2019 00:02:03 GMT+0000 (Coordinated Universal Time)

1 44740U 19074AD 19345.58335648 .00065755 00000-0 46945-3 0 9993 2 44740 53.0094 21.5520 0002477 355.8648 39.6436 15.73183902 4730

Satellite not in orbit